| time (UTC) | temp F | wind direction | speed MPH | gust MPH | rain 1hr in | rain 24hr in | rain mn in | humidity % | barometer mb |
| 20260506024537 | 55 | 263 | 4.0 | 13.0 | 0.03 | 0.37 | 0.37 | 77 | 1005.6 |
| 20260506024016 | 55 | 196 | 3.0 | 13.0 | 0.03 | 0.37 | 0.37 | 77 | 1005.4 |
| 20260506023513 | 56 | 109 | 4.0 | 13.0 | 0.02 | 0.36 | 0.36 | 76 | 1005.5 |
| 20260506023029 | 56 | 304 | 4.0 | 13.0 | 0.02 | 0.36 | 0.36 | 75 | 1005.3 |
| 20260506022514 | 57 | 309 | 2.0 | 15.0 | 0.01 | 0.35 | 0.35 | 75 | 1005.2 |
| 20260506022015 | 57 | 219 | 2.0 | 15.0 | 0.01 | 0.35 | 0.35 | 75 | 1004.9 |
| 20260506021531 | 58 | 331 | 3.0 | 15.0 | 0.01 | 0.35 | 0.35 | 74 | 1004.7 |
| 20260506021013 | 58 | 256 | 3.0 | 9.0 | 0.01 | 0.35 | 0.35 | 74 | 1004.6 |
| 20260506020513 | 58 | 275 | 2.0 | 9.0 | 0.01 | 0.35 | 0.35 | 73 | 1004.6 |
| 20260506020030 | 58 | 281 | 3.0 | 9.0 | 0.00 | 0.34 | 0.34 | 72 | 1004.5 |
| 20260506015514 | 59 | 217 | 3.0 | 8.0 | 0.00 | 0.34 | 0.34 | 72 | 1004.4 |
| 20260506015014 | 59 | 225 | 2.0 | 5.0 | 0.00 | 0.34 | 0.34 | 72 | 1004.2 |
| 20260506014544 | 59 | 211 | 1.0 | 5.0 | 0.00 | 0.34 | 0.34 | 73 | 1004.0 |
| 20260506014013 | 59 | 210 | 2.0 | 5.0 | 0.00 | 0.34 | 0.34 | 73 | 1003.9 |
| 20260506013513 | 59 | 0 | 2.0 | 5.0 | 0.00 | 0.34 | 0.34 | 73 | 1003.8 |
| 20260506013034 | 59 | 200 | 1.0 | 5.0 | 0.00 | 0.34 | 0.34 | 74 | 1003.7 |
| 20260506012513 | 60 | 210 | 2.0 | 11.0 | 0.00 | 0.34 | 0.34 | 74 | 1003.8 |
| 20260506012012 | 60 | 217 | 2.0 | 11.0 | 0.00 | 0.34 | 0.34 | 73 | 1003.8 |
| 20260506011539 | 60 | 178 | 1.0 | 10.0 | 0.00 | 0.34 | 0.34 | 73 | 1003.7 |
| 20260506011014 | 61 | 215 | 4.0 | 10.0 | 0.00 | 0.34 | 0.34 | 71 | 1003.6 |
| 20260506010515 | 61 | 296 | 3.0 | 9.0 | 0.00 | 0.34 | 0.34 | 71 | 1003.4 |
| 20260506010030 | 61 | 204 | 2.0 | 9.0 | 0.00 | 0.34 | 0.34 | 71 | 1003.4 |
| 20260506005513 | 61 | 231 | 2.0 | 9.0 | 0.00 | 0.34 | 0.34 | 71 | 1003.4 |
| 20260506005017 | 62 | 173 | 3.0 | 9.0 | 0.00 | 0.34 | 0.34 | 71 | 1003.2 |
| 20260506004539 | 62 | 252 | 3.0 | 11.0 | 0.00 | 0.34 | 0.34 | 71 | 1003.2 |
| 20260506004016 | 62 | 265 | 3.0 | 12.0 | 0.00 | 0.34 | 0.34 | 70 | 1003.0 |
| 20260506003514 | 62 | 260 | 3.0 | 12.0 | 0.00 | 0.34 | 0.34 | 71 | 1003.1 |
| 20260506003031 | 62 | 219 | 3.0 | 11.0 | 0.00 | 0.34 | 0.34 | 70 | 1003.1 |
| 20260506002513 | 62 | 260 | 4.0 | 12.0 | 0.00 | 0.34 | 0.34 | 70 | 1003.0 |
| 20260506002013 | 62 | 210 | 4.0 | 12.0 | 0.00 | 0.34 | 0.34 | 70 | 1002.8 |
| 20260506001534 | 62 | 215 | 4.0 | 10.0 | 0.00 | 0.34 | 0.34 | 70 | 1002.7 |
| 20260506001014 | 63 | 177 | 5.0 | 15.0 | 0.00 | 0.34 | 0.34 | 70 | 1002.6 |
| 20260506000514 | 63 | 243 | 5.0 | 15.0 | 0.00 | 0.34 | 0.34 | 70 | 1002.7 |
| 20260506000040 | 63 | 210 | 2.0 | 8.0 | 0.00 | 0.34 | 0.34 | 69 | 1002.5 |
| 20260505235515 | 63 | 231 | 2.0 | 11.0 | 0.00 | 0.34 | 0.34 | 68 | 1002.4 |
| 20260505235014 | 63 | 219 | 2.0 | 13.0 | 0.00 | 0.34 | 0.34 | 67 | 1002.3 |
| 20260505234531 | 63 | 152 | 5.0 | 13.0 | 0.00 | 0.34 | 0.34 | 66 | 1002.3 |
| 20260505234014 | 63 | 243 | 4.0 | 10.0 | 0.00 | 0.34 | 0.34 | 66 | 1002.2 |
| 20260505233516 | 64 | 204 | 3.0 | 10.0 | 0.00 | 0.34 | 0.34 | 66 | 1002.1 |
| 20260505233032 | 64 | 225 | 4.0 | 11.0 | 0.00 | 0.34 | 0.34 | 66 | 1002.1 |
| 20260505232515 | 64 | 250 | 3.0 | 11.0 | 0.00 | 0.34 | 0.34 | 66 | 1002.0 |
| 20260505232015 | 64 | 192 | 4.0 | 15.0 | 0.00 | 0.34 | 0.34 | 66 | 1001.8 |
| 20260505231529 | 64 | 226 | 3.0 | 15.0 | 0.00 | 0.34 | 0.34 | 66 | 1001.7 |
| 20260505231016 | 64 | 212 | 4.0 | 14.0 | 0.00 | 0.34 | 0.34 | 66 | 1001.6 |
| 20260505230519 | 64 | 213 | 5.0 | 14.0 | 0.00 | 0.34 | 0.34 | 65 | 1001.6 |
| 20260505230038 | 65 | 239 | 4.0 | 17.0 | 0.00 | 0.34 | 0.34 | 65 | 1001.6 |
| 20260505225515 | 65 | 230 | 4.0 | 17.0 | 0.00 | 0.34 | 0.34 | 64 | 1001.6 |
| 20260505225015 | 65 | 263 | 7.0 | 17.0 | 0.00 | 0.34 | 0.34 | 64 | 1001.5 |
| 20260505224538 | 65 | 192 | 4.0 | 13.0 | 0.00 | 0.34 | 0.34 | 65 | 1001.2 |
| 20260505224014 | 65 | 195 | 6.0 | 13.0 | 0.00 | 0.34 | 0.34 | 65 | 1001.2 |
| 20260505223517 | 65 | 261 | 6.0 | 12.0 | 0.00 | 0.34 | 0.34 | 65 | 1001.0 |
| 20260505223040 | 65 | 219 | 4.0 | 10.0 | 0.00 | 0.34 | 0.34 | 65 | 1000.9 |
| 20260505222515 | 65 | 177 | 4.0 | 12.0 | 0.00 | 0.34 | 0.34 | 65 | 1000.9 |
| 20260505222016 | 65 | 250 | 3.0 | 12.0 | 0.00 | 0.34 | 0.34 | 65 | 1000.8 |
| 20260505221529 | 65 | 248 | 1.0 | 10.0 | 0.00 | 0.34 | 0.34 | 64 | 1000.7 |
| 20260505221015 | 65 | 188 | 3.0 | 10.0 | 0.00 | 0.34 | 0.34 | 62 | 1000.6 |
| 20260505220515 | 65 | 202 | 5.0 | 11.0 | 0.00 | 0.34 | 0.34 | 62 | 1000.6 |
| 20260505220039 | 65 | 184 | 4.0 | 15.0 | 0.00 | 0.34 | 0.34 | 63 | 1000.5 |
| 20260505215516 | 65 | 261 | 4.0 | 15.0 | 0.00 | 0.34 | 0.34 | 63 | 1000.6 |
| 20260505215015 | 66 | 221 | 5.0 | 12.0 | 0.00 | 0.34 | 0.34 | 62 | 1000.7 |
| 20260505214551 | 66 | 194 | 7.0 | 14.0 | 0.00 | 0.34 | 0.34 | 62 | 1000.5 |
| 20260505214015 | 66 | 138 | 6.0 | 18.0 | 0.00 | 0.34 | 0.34 | 62 | 1000.5 |
| 20260505213513 | 66 | 202 | 9.0 | 18.0 | 0.00 | 0.34 | 0.34 | 61 | 1000.2 |
| 20260505213048 | 66 | 216 | 5.0 | 15.0 | 0.00 | 0.34 | 0.34 | 61 | 1000.1 |
| 20260505212517 | 67 | 248 | 6.0 | 19.0 | 0.00 | 0.34 | 0.34 | 62 | 1000.0 |
| 20260505212017 | 67 | 190 | 8.0 | 19.0 | 0.00 | 0.34 | 0.34 | 61 | 999.8 |
| 20260505211533 | 67 | 180 | 8.0 | 19.0 | 0.00 | 0.34 | 0.34 | 61 | 999.6 |
| 20260505211018 | 67 | 206 | 7.0 | 18.0 | 0.00 | 0.34 | 0.34 | 61 | 999.5 |
| 20260505210516 | 66 | 183 | 6.0 | 20.0 | 0.00 | 0.34 | 0.34 | 62 | 999.5 |
| 20260505210033 | 66 | 218 | 7.0 | 25.0 | 0.00 | 0.34 | 0.34 | 62 | 999.4 |
| 20260505205519 | 66 | 171 | 10.0 | 25.0 | 0.00 | 0.34 | 0.34 | 63 | 999.2 |
| 20260505205021 | 66 | 241 | 9.0 | 22.0 | 0.00 | 0.34 | 0.34 | 63 | 999.3 |
| 20260505204537 | 66 | 240 | 8.0 | 21.0 | 0.00 | 0.34 | 0.34 | 63 | 999.5 |
| 20260505204015 | 67 | 227 | 6.0 | 21.0 | 0.00 | 0.34 | 0.34 | 64 | 999.6 |
| 20260505203517 | 67 | 177 | 9.0 | 21.0 | 0.00 | 0.34 | 0.34 | 64 | 999.6 |
| 20260505203041 | 67 | 217 | 8.0 | 20.0 | 0.00 | 0.34 | 0.34 | 64 | 999.4 |
| 20260505202517 | 67 | 260 | 8.0 | 20.0 | 0.00 | 0.34 | 0.34 | 64 | 999.3 |
| 20260505202016 | 67 | 177 | 7.0 | 20.0 | 0.00 | 0.34 | 0.34 | 64 | 999.3 |
| 20260505201547 | 67 | 178 | 7.0 | 20.0 | 0.00 | 0.34 | 0.34 | 64 | 999.3 |
| 20260505201017 | 67 | 208 | 6.0 | 20.0 | 0.00 | 0.34 | 0.34 | 64 | 999.3 |
| 20260505200515 | 67 | 178 | 7.0 | 24.0 | 0.00 | 0.34 | 0.34 | 66 | 999.1 |
| 20260505200036 | 67 | 187 | 9.0 | 24.0 | 0.00 | 0.34 | 0.34 | 66 | 999.1 |
| 20260505195515 | 67 | 161 | 9.0 | 21.0 | 0.00 | 0.34 | 0.34 | 66 | 999.0 |
| 20260505195017 | 67 | 245 | 8.0 | 17.0 | 0.00 | 0.34 | 0.34 | 66 | 999.1 |
| 20260505194534 | 67 | 187 | 6.0 | 17.0 | 0.00 | 0.34 | 0.34 | 66 | 999.3 |
| 20260505194020 | 67 | 193 | 7.0 | 21.0 | 0.00 | 0.34 | 0.34 | 67 | 999.2 |
| 20260505193518 | 66 | 171 | 8.0 | 21.0 | 0.00 | 0.34 | 0.34 | 68 | 999.1 |
| 20260505193044 | 66 | 154 | 8.0 | 19.0 | 0.00 | 0.34 | 0.34 | 69 | 999.0 |
| 20260505192517 | 65 | 210 | 7.0 | 15.0 | 0.00 | 0.34 | 0.34 | 71 | 999.2 |
| 20260505192015 | 65 | 159 | 6.0 | 15.0 | 0.00 | 0.34 | 0.34 | 72 | 999.2 |
| 20260505191534 | 64 | 166 | 6.0 | 15.0 | 0.00 | 0.34 | 0.34 | 74 | 999.1 |
| 20260505191018 | 64 | 223 | 5.0 | 12.0 | 0.00 | 0.34 | 0.34 | 76 | 999.2 |
| 20260505190517 | 64 | 194 | 6.0 | 12.0 | 0.00 | 0.34 | 0.34 | 76 | 999.2 |
| 20260505190048 | 63 | 119 | 5.0 | 10.0 | 0.01 | 0.34 | 0.34 | 76 | 999.2 |
| 20260505185520 | 63 | 246 | 4.0 | 13.0 | 0.01 | 0.34 | 0.34 | 77 | 999.3 |
| 20260505185016 | 63 | 169 | 5.0 | 17.0 | 0.02 | 0.34 | 0.34 | 78 | 999.3 |
| 20260505184535 | 63 | 171 | 4.0 | 18.0 | 0.02 | 0.34 | 0.34 | 79 | 999.3 |
| 20260505184017 | 63 | 202 | 6.0 | 18.0 | 0.06 | 0.34 | 0.34 | 79 | 999.4 |
| 20260505183515 | 63 | 203 | 5.0 | 11.0 | 0.15 | 0.34 | 0.34 | 80 | 999.3 |
| 20260505183047 | 62 | 219 | 5.0 | 11.0 | 0.21 | 0.34 | 0.34 | 82 | 999.3 |
| 20260505182520 | 62 | 227 | 4.0 | 14.0 | 0.23 | 0.34 | 0.34 | 84 | 999.2 |
| 20260505182016 | 61 | 203 | 4.0 | 14.0 | 0.24 | 0.34 | 0.34 | 86 | 999.2 |
| 20260505181532 | 60 | 259 | 6.0 | 11.0 | 0.25 | 0.34 | 0.34 | 86 | 999.2 |
| 20260505181021 | 60 | 241 | 4.0 | 11.0 | 0.25 | 0.34 | 0.34 | 86 | 999.2 |
| 20260505180517 | 59 | 242 | 4.0 | 11.0 | 0.25 | 0.34 | 0.34 | 85 | 999.1 |
| 20260505180037 | 59 | 178 | 2.0 | 19.0 | 0.24 | 0.33 | 0.33 | 85 | 999.2 |
| 20260505175515 | 59 | 263 | 5.0 | 19.0 | 0.24 | 0.33 | 0.33 | 84 | 999.8 |
| 20260505175023 | 60 | 304 | 3.0 | 18.0 | 0.23 | 0.32 | 0.32 | 83 | 999.9 |
| 20260505174540 | 60 | 236 | 6.0 | 22.0 | 0.22 | 0.31 | 0.31 | 81 | 999.8 |
| 20260505174016 | 61 | 302 | 8.0 | 23.0 | 0.18 | 0.27 | 0.27 | 78 | 999.8 |
| 20260505173515 | 63 | 314 | 10.0 | 23.0 | 0.09 | 0.18 | 0.18 | 74 | 999.6 |
| 20260505173040 | 65 | 331 | 4.0 | 11.0 | 0.03 | 0.12 | 0.12 | 71 | 999.3 |
| 20260505172515 | 67 | 250 | 2.0 | 10.0 | 0.02 | 0.11 | 0.11 | 68 | 998.9 |
| 20260505172025 | 67 | 18 | 6.0 | 14.0 | 0.00 | 0.09 | 0.09 | 62 | 999.0 |
| 20260505171539 | 67 | 274 | 3.0 | 15.0 | 0.00 | 0.09 | 0.09 | 58 | 998.7 |
| 20260505171016 | 67 | 273 | 5.0 | 15.0 | 0.00 | 0.09 | 0.09 | 58 | 998.8 |
| 20260505170519 | 67 | 218 | 4.0 | 11.0 | 0.00 | 0.09 | 0.09 | 59 | 998.9 |
| 20260505170041 | 67 | 212 | 2.0 | 12.0 | 0.00 | 0.09 | 0.09 | 59 | 998.9 |
| 20260505165516 | 68 | 214 | 5.0 | 15.0 | 0.00 | 0.09 | 0.09 | 58 | 998.9 |
| 20260505165019 | 68 | 187 | 4.0 | 15.0 | 0.00 | 0.09 | 0.09 | 58 | 998.7 |
| 20260505164537 | 68 | 182 | 7.0 | 16.0 | 0.00 | 0.09 | 0.09 | 58 | 998.8 |
| 20260505164016 | 67 | 212 | 8.0 | 16.0 | 0.00 | 0.09 | 0.09 | 58 | 998.8 |
| 20260505163516 | 67 | 146 | 6.0 | 21.0 | 0.00 | 0.09 | 0.09 | 59 | 998.9 |
| 20260505163033 | 66 | 115 | 6.0 | 22.0 | 0.00 | 0.09 | 0.09 | 59 | 999.0 |
| 20260505162516 | 66 | 186 | 9.0 | 22.0 | 0.00 | 0.09 | 0.09 | 59 | 999.1 |
| 20260505162016 | 66 | 163 | 5.0 | 16.0 | 0.00 | 0.09 | 0.09 | 60 | 999.4 |
| 20260505161535 | 66 | 213 | 6.0 | 20.0 | 0.00 | 0.09 | 0.09 | 60 | 999.4 |
| 20260505161016 | 66 | 198 | 8.0 | 20.0 | 0.00 | 0.09 | 0.09 | 61 | 999.6 |
| 20260505160516 | 65 | 164 | 9.0 | 19.0 | 0.00 | 0.09 | 0.09 | 62 | 999.8 |
| 20260505153044 | 62 | 196 | 10.0 | 21.0 | 0.01 | 0.09 | 0.09 | 69 | 1000.3 |
| 20260505152516 | 62 | 185 | 7.0 | 18.0 | 0.01 | 0.09 | 0.09 | 71 | 1000.3 |
| 20260505152024 | 61 | 171 | 7.0 | 18.0 | 0.01 | 0.09 | 0.09 | 73 | 1000.4 |
| 20260505151551 | 60 | 184 | 7.0 | 18.0 | 0.01 | 0.09 | 0.09 | 74 | 1000.4 |
| 20260505151016 | 60 | 138 | 7.0 | 18.0 | 0.01 | 0.09 | 0.09 | 75 | 1000.5 |
| 20260505150522 | 60 | 200 | 8.0 | 18.0 | 0.03 | 0.09 | 0.09 | 75 | 1000.5 |
| 20260505140522 | 56 | 183 | 6.0 | 18.0 | 0.04 | 0.08 | 0.04 | 81 | 1001.6 |
| 20260505125021 | 64 | 195 | 5.0 | 13.0 | 0.00 | 0.32 | 0.00 | 57 | 1000.6 |
| 20260505124540 | 63 | 177 | 5.0 | 16.0 | 0.00 | 0.32 | 0.00 | 57 | 1000.6 |
| 20260505124019 | 62 | 184 | 6.0 | 17.0 | 0.00 | 0.32 | 0.00 | 57 | 1000.8 |
| 20260505123518 | 61 | 182 | 8.0 | 17.0 | 0.00 | 0.32 | 0.00 | 58 | 1000.8 |
| 20260505123100 | 60 | 183 | 7.0 | 12.0 | 0.00 | 0.32 | 0.00 | 59 | 1000.9 |
| 20260505122515 | 60 | 178 | 7.0 | 15.0 | 0.00 | 0.32 | 0.00 | 59 | 1000.9 |
| 20260505122018 | 60 | 187 | 5.0 | 18.0 | 0.00 | 0.32 | 0.00 | 59 | 1001.0 |
| 20260505121539 | 60 | 188 | 7.0 | 18.0 | 0.00 | 0.32 | 0.00 | 59 | 1001.0 |
| 20260505121017 | 60 | 199 | 7.0 | 16.0 | 0.00 | 0.32 | 0.00 | 59 | 1001.0 |
| 20260505120517 | 60 | 181 | 7.0 | 14.0 | 0.00 | 0.32 | 0.00 | 59 | 1000.9 |
| 20260505120045 | 59 | 217 | 6.0 | 16.0 | 0.00 | 0.32 | 0.00 | 59 | 1000.9 |
| 20260505115515 | 59 | 182 | 5.0 | 17.0 | 0.00 | 0.32 | 0.00 | 60 | 1001.0 |
| 20260505115015 | 59 | 130 | 6.0 | 17.0 | 0.00 | 0.32 | 0.00 | 59 | 1001.0 |
| 20260505114545 | 59 | 179 | 6.0 | 16.0 | 0.00 | 0.32 | 0.00 | 59 | 1000.9 |
| 20260505114015 | 59 | 192 | 7.0 | 16.0 | 0.00 | 0.32 | 0.00 | 58 | 1000.9 |
| 20260505113516 | 59 | 167 | 7.0 | 16.0 | 0.00 | 0.32 | 0.00 | 58 | 1000.9 |
| 20260505113030 | 59 | 155 | 8.0 | 15.0 | 0.00 | 0.32 | 0.00 | 59 | 1000.9 |
| 20260505112515 | 59 | 178 | 7.0 | 16.0 | 0.00 | 0.32 | 0.00 | 58 | 1000.8 |
| 20260505112015 | 59 | 165 | 6.0 | 17.0 | 0.00 | 0.32 | 0.00 | 58 | 1000.9 |
| 20260505111533 | 59 | 207 | 8.0 | 17.0 | 0.00 | 0.32 | 0.00 | 59 | 1000.9 |
| 20260505111015 | 58 | 134 | 7.0 | 17.0 | 0.00 | 0.32 | 0.00 | 59 | 1000.9 |
| 20260505110515 | 58 | 139 | 8.0 | 21.0 | 0.00 | 0.32 | 0.00 | 59 | 1000.9 |
| 20260505102016 | 56 | 182 | 7.0 | 16.0 | 0.00 | 0.32 | 0.00 | 60 | 1000.8 |
| 20260505101530 | 56 | 203 | 7.0 | 16.0 | 0.00 | 0.32 | 0.00 | 60 | 1001.0 |
| 20260505101017 | 56 | 197 | 8.0 | 16.0 | 0.00 | 0.32 | 0.00 | 61 | 1000.9 |
| 20260505100515 | 56 | 207 | 8.0 | 17.0 | 0.00 | 0.32 | 0.00 | 61 | 1000.9 |
| 20260505100033 | 55 | 205 | 7.0 | 17.0 | 0.00 | 0.32 | 0.00 | 61 | 1000.9 |
| 20260505095517 | 55 | 174 | 6.0 | 17.0 | 0.00 | 0.32 | 0.00 | 61 | 1000.9 |
| 20260505095017 | 55 | 14 | 7.0 | 17.0 | 0.00 | 0.32 | 0.00 | 61 | 1000.9 |
| 20260505094530 | 55 | 222 | 5.0 | 15.0 | 0.00 | 0.32 | 0.00 | 62 | 1000.9 |
| 20260505094013 | 55 | 157 | 7.0 | 16.0 | 0.00 | 0.32 | 0.00 | 62 | 1000.9 |
| 20260505093514 | 55 | 195 | 6.0 | 16.0 | 0.00 | 0.32 | 0.00 | 62 | 1001.0 |
| 20260505093037 | 55 | 172 | 6.0 | 16.0 | 0.00 | 0.32 | 0.00 | 62 | 1001.0 |
| 20260505092515 | 55 | 186 | 7.0 | 16.0 | 0.00 | 0.32 | 0.00 | 57 | 1001.1 |
| 20260505092013 | 55 | 180 | 8.0 | 17.0 | 0.00 | 0.32 | 0.00 | 57 | 1001.1 |
| 20260505091540 | 55 | 140 | 7.0 | 17.0 | 0.00 | 0.32 | 0.00 | 58 | 1001.2 |
| 20260505091015 | 55 | 186 | 7.0 | 16.0 | 0.00 | 0.32 | 0.00 | 58 | 1001.2 |
| 20260505090515 | 55 | 223 | 7.0 | 19.0 | 0.00 | 0.32 | 0.00 | 58 | 1001.3 |
| 20260505090046 | 55 | 177 | 6.0 | 20.0 | 0.00 | 0.32 | 0.00 | 58 | 1001.3 |
| 20260505085517 | 55 | 188 | 8.0 | 20.0 | 0.00 | 0.32 | 0.00 | 58 | 1001.3 |
| 20260505085016 | 55 | 196 | 6.0 | 13.0 | 0.00 | 0.32 | 0.00 | 58 | 1001.4 |
| 20260505084533 | 55 | 165 | 6.0 | 13.0 | 0.00 | 0.32 | 0.00 | 58 | 1001.4 |
| 20260505084016 | 55 | 209 | 6.0 | 12.0 | 0.00 | 0.32 | 0.00 | 58 | 1001.4 |
| 20260505083517 | 55 | 222 | 6.0 | 12.0 | 0.00 | 0.32 | 0.00 | 58 | 1001.4 |
| 20260505083035 | 55 | 196 | 5.0 | 10.0 | 0.00 | 0.32 | 0.00 | 58 | 1001.4 |
| 20260505082520 | 55 | 175 | 5.0 | 12.0 | 0.00 | 0.32 | 0.00 | 58 | 1001.3 |
| 20260505082017 | 55 | 194 | 4.0 | 12.0 | 0.00 | 0.32 | 0.00 | 58 | 1001.3 |
| 20260505081539 | 55 | 198 | 4.0 | 10.0 | 0.00 | 0.32 | 0.00 | 58 | 1001.4 |
| 20260505081016 | 55 | 225 | 3.0 | 12.0 | 0.00 | 0.32 | 0.00 | 59 | 1001.4 |
| 20260505080516 | 55 | 263 | 6.0 | 14.0 | 0.00 | 0.32 | 0.00 | 59 | 1001.5 |
| 20260505080047 | 55 | 174 | 6.0 | 14.0 | 0.00 | 0.32 | 0.00 | 58 | 1001.5 |
| 20260505075516 | 55 | 155 | 3.0 | 10.0 | 0.00 | 0.32 | 0.00 | 59 | 1001.5 |
| 20260505075015 | 55 | 175 | 4.0 | 12.0 | 0.00 | 0.32 | 0.00 | 58 | 1001.5 |
| 20260505074533 | 55 | 210 | 5.0 | 12.0 | 0.00 | 0.32 | 0.00 | 58 | 1001.5 |
| 20260505074016 | 55 | 155 | 6.0 | 11.0 | 0.00 | 0.32 | 0.00 | 58 | 1001.5 |
| 20260505073515 | 55 | 189 | 5.0 | 14.0 | 0.00 | 0.32 | 0.00 | 58 | 1001.5 |
| 20260505073045 | 55 | 136 | 7.0 | 14.0 | 0.00 | 0.32 | 0.00 | 58 | 1001.4 |
| 20260505072517 | 55 | 194 | 6.0 | 15.0 | 0.00 | 0.32 | 0.00 | 58 | 1001.4 |
| 20260505072016 | 55 | 155 | 6.0 | 15.0 | 0.00 | 0.32 | 0.00 | 58 | 1001.5 |
| 20260505071533 | 55 | 180 | 6.0 | 14.0 | 0.00 | 0.32 | 0.00 | 59 | 1001.4 |
| 20260505071016 | 55 | 190 | 6.0 | 15.0 | 0.00 | 0.32 | 0.00 | 59 | 1001.4 |
| 20260505070516 | 55 | 177 | 7.0 | 17.0 | 0.00 | 0.32 | 0.00 | 60 | 1001.5 |
| 20260505070033 | 55 | 191 | 7.0 | 19.0 | 0.00 | 0.32 | 0.00 | 60 | 1001.5 |
| 20260505065516 | 55 | 198 | 7.0 | 19.0 | 0.00 | 0.32 | 0.00 | 60 | 1001.5 |
| 20260505065015 | 55 | 223 | 7.0 | 15.0 | 0.00 | 0.32 | 0.00 | 60 | 1001.6 |
| 20260505064533 | 55 | 202 | 6.0 | 18.0 | 0.00 | 0.32 | 0.00 | 61 | 1001.6 |
| 20260505064014 | 55 | 105 | 7.0 | 18.0 | 0.00 | 0.32 | 0.00 | 61 | 1001.6 |
| 20260505063518 | 54 | 168 | 7.0 | 16.0 | 0.00 | 0.32 | 0.00 | 62 | 1001.6 |
| 20260505063034 | 54 | 195 | 7.0 | 16.0 | 0.00 | 0.32 | 0.00 | 64 | 1001.6 |
| 20260505062515 | 53 | 173 | 5.0 | 11.0 | 0.00 | 0.32 | 0.00 | 65 | 1001.5 |
| 20260505062017 | 53 | 183 | 4.0 | 11.0 | 0.00 | 0.32 | 0.00 | 67 | 1001.6 |
| 20260505061530 | 52 | 186 | 4.0 | 10.0 | 0.00 | 0.32 | 0.00 | 68 | 1001.6 |
| 20260505061017 | 51 | 159 | 3.0 | 10.0 | 0.00 | 0.32 | 0.00 | 70 | 1001.6 |
| 20260505060517 | 50 | 150 | 4.0 | 9.0 | 0.00 | 0.32 | 0.00 | 71 | 1001.7 |
| 20260505060035 | 50 | 175 | 2.0 | 9.0 | 0.00 | 0.32 | 0.00 | 73 | 1001.7 |
| 20260505055518 | 49 | 186 | 2.0 | 7.0 | 0.00 | 0.32 | 0.00 | 74 | 1001.8 |
| 20260505055016 | 49 | 203 | 2.0 | 6.0 | 0.00 | 0.32 | 0.00 | 75 | 1001.8 |
| 20260505054533 | 49 | 135 | 1.0 | 5.0 | 0.00 | 0.32 | 0.00 | 77 | 1001.8 |
| 20260505054013 | 48 | 140 | 1.0 | 5.0 | 0.00 | 0.32 | 0.00 | 77 | 1001.8 |
| 20260505053515 | 48 | 159 | 2.0 | 5.0 | 0.00 | 0.32 | 0.00 | 77 | 1001.9 |
| 20260505053030 | 48 | 139 | 1.0 | 4.0 | 0.00 | 0.32 | 0.00 | 78 | 1001.9 |
| 20260505052520 | 48 | 119 | 2.0 | 4.0 | 0.00 | 0.32 | 0.00 | 78 | 1002.0 |
| 20260505052014 | 48 | 127 | 2.0 | 6.0 | 0.00 | 0.32 | 0.00 | 78 | 1002.1 |
| 20260505051533 | 49 | 132 | 2.0 | 6.0 | 0.00 | 0.32 | 0.00 | 78 | 1002.1 |
| 20260505051015 | 49 | 103 | 2.0 | 5.0 | 0.00 | 0.32 | 0.00 | 77 | 1002.1 |
| 20260505050516 | 49 | 158 | 1.0 | 5.0 | 0.00 | 0.32 | 0.00 | 77 | 1002.3 |
| 20260505041548 | 51 | 186 | 2.0 | 8.0 | 0.00 | 0.32 | 0.00 | 76 | 1002.6 |
| 20260505041014 | 51 | 140 | 2.0 | 8.0 | 0.00 | 0.32 | 0.00 | 76 | 1002.7 |
| 20260505040514 | 51 | 134 | 3.0 | 8.0 | 0.00 | 0.32 | 0.00 | 76 | 1002.6 |
| 20260505040030 | 51 | 125 | 2.0 | 8.0 | 0.00 | 0.32 | 0.00 | 76 | 1002.7 |
| 20260505035514 | 51 | 131 | 3.0 | 8.0 | 0.00 | 0.32 | 0.32 | 76 | 1002.7 |
| 20260505035019 | 51 | 109 | 3.0 | 8.0 | 0.00 | 0.32 | 0.32 | 76 | 1002.7 |
| 20260505034534 | 51 | 150 | 3.0 | 8.0 | 0.00 | 0.32 | 0.32 | 76 | 1002.6 |
| 20260505034016 | 51 | 167 | 2.0 | 9.0 | 0.00 | 0.32 | 0.32 | 76 | 1002.6 |
| 20260505033515 | 51 | 156 | 4.0 | 9.0 | 0.00 | 0.32 | 0.32 | 77 | 1002.6 |
| 20260505033036 | 51 | 187 | 3.0 | 9.0 | 0.00 | 0.32 | 0.32 | 77 | 1002.7 |
| 20260505032516 | 51 | 111 | 2.0 | 7.0 | 0.00 | 0.32 | 0.32 | 77 | 1002.7 |
| 20260505032015 | 51 | 140 | 2.0 | 7.0 | 0.00 | 0.32 | 0.32 | 77 | 1002.8 |
| 20260505031536 | 51 | 174 | 3.0 | 8.0 | 0.00 | 0.32 | 0.32 | 77 | 1002.9 |
| 20260505031013 | 50 | 119 | 3.0 | 8.0 | 0.00 | 0.32 | 0.32 | 78 | 1002.9 |
| 20260505030515 | 50 | 138 | 3.0 | 8.0 | 0.00 | 0.32 | 0.32 | 78 | 1003.0 |
| 20260505030036 | 50 | 149 | 3.0 | 8.0 | 0.00 | 0.32 | 0.32 | 78 | 1003.0 |
| 20260505025516 | 50 | 138 | 2.0 | 7.0 | 0.00 | 0.32 | 0.32 | 78 | 1003.1 |
| 20260505025015 | 50 | 131 | 2.0 | 7.0 | 0.00 | 0.32 | 0.32 | 78 | 1003.2 |